Location: Lesignano de� Bagni
(44.6500°N, 10.3000°E)
Time: 07:21:36
(UTC+00:00)

Gbstr 26 Del rocket - Pass Details

Date: 03 March 2021
Orbit: 492 x 1263 km, 51.8° (Epoch: 19 April)

Event Time Altitude Azimuth Distance (km) Brightness Sun altitude
Rises 19:54:53 0° 295° (WNW) 2,958 7.8 -29.7°
Reaches altitude 10° 19:57:06 10° 302° (WNW) 2,146 6.7 -30.1°
Enters shadow 20:01:01 42° 349° (NNW) 1,102 4.4 -30.7°
